Simultaneous Nadir Overpasses (SNOs) Predictions

Prediction of SNOs between METOP-A and NOAA-19 Satellite Orbit:

Table of predicted SNOs for the next 14.0 days since TLE Epoch: 8/21/2015
Index Date (METOP-A) Time (METOP-A) Lat,Lon (METOP-A) SZA (METOP-A ) Date (NOAA-19) Time (NOAA-19) Lat,Lon (NOAA-19) SZA (NOAA-19 ) Distance(km) Time Diff (sec)
1 08/28/2015 23:51:40 -75.44, 0.00 114.18 08/28/2015 23:50:27 -75.44, -0.74 114.16 20.75 73
2 08/29/2015 00:42:22 75.33, 167.00 65.73 08/29/2015 00:41:21 75.30, 166.95 65.71 2.91 61
3 08/29/2015 01:33:05 -75.28, -25.83 114.31 08/29/2015 01:32:26 -75.28, -25.73 114.31 2.68 39
4 08/29/2015 02:23:45 75.26, 141.45 65.69 08/29/2015 02:23:23 75.28, 141.52 65.71 2.96 22
5 08/29/2015 03:14:27 -75.26, -51.23 114.31 08/29/2015 03:14:28 -75.25, -51.16 114.31 1.91 1
6 08/29/2015 04:05:07 75.24, 116.05 65.69 08/29/2015 04:05:25 75.25, 116.09 65.71 2.15 18
7 08/29/2015 04:55:49 -75.24, -76.63 114.30 08/29/2015 04:56:30 -75.23, -76.60 114.31 1.35 41
8 08/29/2015 05:46:29 75.22, 90.65 65.70 08/29/2015 05:47:27 75.23, 90.66 65.71 1.46 58
9 08/29/2015 06:37:17 -74.93,-102.85 114.57 08/29/2015 06:38:27 -74.97,-101.32 114.55 44.48 70




NCC Satellite Simultaneous Nadir Overpasses (SNOs) Prediction Service
